| time (UTC) | temp F | wind direction | speed MPH | gust MPH | rain 1hr in | rain 24hr in | rain mn in | humidity % | barometer mb |
| 20260506044519 | 54 | 238 | 0.0 | 0.0 | 0.00 | 0.00 | 0.28 | 93 | 1009.2 |
| 20260506043015 | 53 | 238 | 0.0 | 0.0 | 0.00 | 0.00 | 0.28 | 93 | 1009.3 |
| 20260506041513 | 53 | 218 | 0.0 | 0.0 | 0.00 | 0.00 | 0.28 | 93 | 1009.3 |
| 20260506040011 | 53 | 217 | 0.0 | 0.0 | 0.00 | 0.00 | 0.28 | 93 | 1009.5 |
| 20260506034510 | 54 | 217 | 0.0 | 0.0 | 0.00 | 0.00 | 0.28 | 93 | 1009.5 |
| 20260506033015 | 54 | 217 | 0.0 | 0.0 | 0.00 | 0.00 | 0.28 | 92 | 1009.6 |
| 20260506031508 | 54 | 217 | 0.0 | 0.0 | 0.00 | 0.00 | 0.28 | 93 | 1009.5 |
| 20260506030008 | 54 | 217 | 0.0 | 0.0 | 0.00 | 0.00 | 0.28 | 93 | 1009.5 |
| 20260506024517 | 54 | 216 | 0.0 | 0.0 | 0.00 | 0.00 | 0.28 | 93 | 1009.5 |
| 20260506023006 | 54 | 216 | 0.0 | 0.0 | 0.00 | 0.00 | 0.28 | 93 | 1009.6 |
| 20260506021509 | 54 | 216 | 0.0 | 0.0 | 0.00 | 0.00 | 0.28 | 92 | 1009.6 |
| 20260506020004 | 54 | 216 | 1.0 | 0.0 | 0.00 | 0.00 | 0.28 | 92 | 1009.7 |
| 20260506014505 | 54 | 215 | 1.0 | 0.0 | 0.00 | 0.00 | 0.28 | 92 | 1009.7 |
| 20260506013104 | 55 | 217 | 1.0 | 0.0 | 0.00 | 0.00 | 0.28 | 92 | 1009.8 |
| 20260506011626 | 55 | 215 | 2.0 | 0.0 | 0.00 | 0.00 | 0.28 | 92 | 1009.9 |
| 20260506010057 | 55 | 215 | 3.0 | 0.0 | 0.00 | 0.00 | 0.28 | 92 | 1009.9 |
| 20260506004604 | 56 | 213 | 3.0 | 0.0 | 0.00 | 0.00 | 0.28 | 92 | 1009.9 |
| 20260506003052 | 56 | 230 | 2.0 | 0.0 | 0.00 | 0.00 | 0.28 | 92 | 1010.0 |
| 20260506001551 | 56 | 225 | 0.0 | 0.0 | 0.00 | 0.00 | 0.28 | 92 | 1009.9 |
| 20260506000114 | 56 | 225 | 1.0 | 0.0 | 0.00 | 0.00 | 0.28 | 92 | 1010.0 |
| 20260505234553 | 56 | 224 | 0.0 | 0.0 | 0.00 | 0.00 | 0.28 | 92 | 1010.1 |
| 20260505233050 | 56 | 224 | 0.0 | 0.0 | 0.00 | 0.00 | 0.28 | 92 | 1010.1 |
| 20260505231551 | 56 | 224 | 0.0 | 0.0 | 0.00 | 0.00 | 0.25 | 92 | 1010.1 |
| 20260505230101 | 56 | 224 | 0.0 | 0.0 | 0.00 | 0.00 | 0.23 | 92 | 1010.2 |
| 20260505224544 | 56 | 224 | 0.0 | 0.0 | 0.00 | 0.00 | 0.12 | 92 | 1010.3 |
| 20260505223042 | 56 | 224 | 0.0 | 0.0 | 0.00 | 0.00 | 0.05 | 92 | 1010.4 |
| 20260505221546 | 56 | 224 | 0.0 | 0.0 | 0.00 | 0.00 | 0.01 | 92 | 1010.4 |
| 20260505220040 | 56 | 224 | 0.0 | 0.0 | 0.00 | 0.00 | 0.00 | 92 | 1010.5 |
| 20260505214539 | 56 | 224 | 0.0 | 0.0 | 0.00 | 0.00 | 0.12 | 92 | 1010.6 |
| 20260505213040 | 56 | 224 | 0.0 | 0.0 | 0.00 | 0.00 | 0.11 | 92 | 1010.6 |
| 20260505211541 | 56 | 224 | 0.0 | 0.0 | 0.00 | 0.00 | 0.07 | 92 | 1010.7 |
| 20260505210038 | 56 | 224 | 0.0 | 0.0 | 0.00 | 0.00 | 0.07 | 92 | 1010.8 |
| 20260505204546 | 56 | 224 | 0.0 | 0.0 | 0.00 | 0.00 | 0.07 | 92 | 1010.7 |
| 20260505203047 | 56 | 224 | 0.0 | 0.0 | 0.00 | 0.00 | 0.07 | 92 | 1010.8 |
| 20260505201536 | 56 | 224 | 0.0 | 0.0 | 0.00 | 0.00 | 0.07 | 92 | 1011.0 |
| 20260505200036 | 56 | 224 | 0.0 | 0.0 | 0.00 | 0.00 | 0.07 | 92 | 1011.0 |
| 20260505194545 | 56 | 224 | 0.0 | 0.0 | 0.00 | 0.00 | 0.07 | 92 | 1010.9 |
| 20260505193037 | 56 | 224 | 0.0 | 0.0 | 0.00 | 0.00 | 0.07 | 91 | 1010.7 |
| 20260505191544 | 57 | 224 | 0.0 | 0.0 | 0.00 | 0.00 | 0.07 | 91 | 1010.8 |
| 20260505190040 | 57 | 224 | 0.0 | 0.0 | 0.00 | 0.00 | 0.07 | 91 | 1010.6 |
| 20260505184536 | 57 | 224 | 0.0 | 0.0 | 0.00 | 0.00 | 0.07 | 91 | 1010.6 |
| 20260505183034 | 57 | 224 | 0.0 | 0.0 | 0.00 | 0.00 | 0.07 | 91 | 1010.5 |
| 20260505181536 | 57 | 224 | 0.0 | 0.0 | 0.00 | 0.00 | 0.07 | 91 | 1010.5 |
| 20260505180043 | 57 | 224 | 0.0 | 0.0 | 0.00 | 0.00 | 0.07 | 90 | 1010.5 |
| 20260505174533 | 57 | 224 | 0.0 | 0.0 | 0.00 | 0.00 | 0.07 | 90 | 1010.6 |
| 20260505173029 | 58 | 231 | 0.0 | 0.0 | 0.00 | 0.00 | 0.07 | 89 | 1010.7 |
| 20260505171529 | 58 | 231 | 0.0 | 0.0 | 0.00 | 0.00 | 0.07 | 90 | 1010.7 |
| 20260505170030 | 59 | 231 | 0.0 | 0.0 | 0.00 | 0.00 | 0.07 | 90 | 1010.8 |
| 20260505164627 | 59 | 231 | 0.0 | 0.0 | 0.00 | 0.00 | 0.07 | 90 | 1010.8 |
| 20260505163025 | 59 | 231 | 0.0 | 0.0 | 0.00 | 0.00 | 0.06 | 90 | 1011.0 |
| 20260505161527 | 59 | 231 | 0.0 | 0.0 | 0.00 | 0.00 | 0.06 | 89 | 1010.9 |
| 20260505153024 | 59 | 230 | 2.0 | 0.0 | 0.00 | 0.00 | 0.05 | 88 | 1011.3 |
| 20260505151523 | 60 | 229 | 1.0 | 0.0 | 0.00 | 0.00 | 0.05 | 89 | 1011.1 |
| 20260505124520 | 66 | 217 | 4.0 | 0.0 | 0.00 | 0.00 | 0.00 | 69 | 1011.2 |
| 20260505123015 | 67 | 224 | 1.0 | 0.0 | 0.00 | 0.00 | 0.00 | 63 | 1011.2 |
| 20260505121528 | 67 | 224 | 0.0 | 0.0 | 0.00 | 0.00 | 0.00 | 61 | 1011.2 |
| 20260505120014 | 68 | 222 | 4.0 | 0.0 | 0.00 | 0.00 | 0.00 | 59 | 1011.2 |
| 20260505114514 | 69 | 184 | 0.0 | 0.0 | 0.00 | 0.00 | 0.00 | 56 | 1011.3 |
| 20260505113012 | 69 | 184 | 2.0 | 0.0 | 0.00 | 0.00 | 0.00 | 55 | 1011.4 |
| 20260505111510 | 70 | 92 | 1.0 | 0.0 | 0.00 | 0.00 | 0.00 | 55 | 1011.7 |
| 20260505101503 | 70 | 201 | 0.0 | 0.0 | 0.00 | 0.00 | 0.00 | 54 | 1012.1 |
| 20260505100138 | 71 | 208 | 2.0 | 0.0 | 0.00 | 0.00 | 0.00 | 54 | 1012.3 |
| 20260505094556 | 69 | 202 | 2.0 | 0.0 | 0.00 | 0.00 | 0.00 | 55 | 1012.4 |
| 20260505093054 | 69 | 171 | 0.0 | 0.0 | 0.00 | 0.00 | 0.00 | 57 | 1012.4 |
| 20260505091615 | 68 | 171 | 2.0 | 0.0 | 0.00 | 0.00 | 0.00 | 57 | 1012.5 |
| 20260505090058 | 68 | 186 | 1.0 | 0.0 | 0.00 | 0.00 | 0.00 | 61 | 1012.7 |
| 20260505084547 | 68 | 21 | 1.0 | 0.0 | 0.00 | 0.00 | 0.00 | 60 | 1012.7 |
| 20260505083049 | 67 | 24 | 1.0 | 0.0 | 0.00 | 0.00 | 0.00 | 64 | 1013.0 |
| 20260505081544 | 66 | 20 | 0.0 | 0.0 | 0.00 | 0.00 | 0.00 | 66 | 1013.0 |
| 20260505080045 | 64 | 20 | 0.0 | 0.0 | 0.00 | 0.00 | 0.00 | 71 | 1013.1 |
| 20260505074533 | 63 | 20 | 0.0 | 0.0 | 0.00 | 0.00 | 0.00 | 72 | 1013.1 |
| 20260505073031 | 61 | 20 | 0.0 | 0.0 | 0.00 | 0.00 | 0.00 | 75 | 1013.5 |
| 20260505071535 | 60 | 20 | 0.0 | 0.0 | 0.00 | 0.00 | 0.00 | 80 | 1013.6 |
| 20260505070020 | 59 | 20 | 0.0 | 0.0 | 0.00 | 0.00 | 0.00 | 84 | 1013.7 |
| 20260505064518 | 57 | 20 | 0.0 | 0.0 | 0.00 | 0.00 | 0.00 | 86 | 1013.7 |
| 20260505063021 | 57 | 20 | 0.0 | 0.0 | 0.00 | 0.00 | 0.00 | 87 | 1013.7 |
| 20260505061512 | 56 | 20 | 0.0 | 0.0 | 0.00 | 0.00 | 0.00 | 88 | 1013.8 |
| 20260505060012 | 55 | 20 | 0.0 | 0.0 | 0.00 | 0.00 | 0.00 | 88 | 1013.9 |